COSMOS 374 DEB

Satellite information

Favourite Embed

Satellite Type and Status

DEBRISIN ORBIT

Key statistics

Satellite COSMOS 374 DEB at a glance.

Uptime

19919

Days in orbit

Revolutions

≈ 14.4

Per day

Orbit

LEO

Low Earth Orbit

Inclination

62.9

Latest

Satellite identification and parameters

Extended collection of information and parameters for COSMOS 374 DEB.

Object identification

Identified? True

Debris? True

Object name: COSMOS 374 DEB

International designator: 1970-089D

Object number (NORAD): 4617

Object ID (CCSDS): 4617

Country: COMMONWEALTH OF INDEPENDENT STATES (CIS)

Current information (Y/N): Y

RCS size: MEDIUM

Orbital parameters

Period: 100.156 minutes

Inclination: 62.9429 deg

SMA: 7144.067 km

Apoapsis: 984.463 km

Periapsis: 547.4 km

RAAN: 174.8517 deg

Eccentricy: 0.0305892

Argument of periapsis: 280.4022 deg

Mean anomaly: 76.2708 deg

Mean motion: 14.37753795 rev/day

Mean motion (dot): 0.00004974 rev/day2

B* drag term: 0.00098493 1/REarth

Two-line elements (TLE)

Creation date: May 6, 2025, 3:54 a.m.

Reference frame: TEME

Reference center: EARTH

Epoch: May 5, 2025, 9:13 p.m. UTC

TLE line 0: 0 COSMOS 374 DEB

TLE line 1: 1 04617U 70089D 25125.88471738 .00004974 00000-0 98493-3 0 9993

TLE line 2: 2 04617 62.9429 174.8517 0305892 280.4022 76.2708 14.37753795709333

Live tracking on map

Real-time ground track for satellite COSMOS 374 DEB.

In-orbit conjunctions

A list of the most updated potential collisions computed for object COSMOS 374 DEB.

Target Orbit TCA Probability of collision Miss distance Type
FENGYUN 1C DEB SSO 2024-11-09 15:33:51 0.0007446192 283.0 (m) DEBRIS
OBJECT C SSO 2024-08-05 16:42:20 0.001347572 304.0 (m) UNKNOWN
CZ-6A DEB SSO 2024-07-02 05:10:43 0.0001041633 425.0 (m) DEBRIS

Associated space launch

The I2P satellites were the first soviet coorbital ASAT system.

COSMOS 374 DEB was lifted into orbit during the mission ‘Tsiklon-2 | I2P 4’, on board a Tsiklon-2 space rocket.

The launch took place on Oct. 23, 1970, 4:42 a.m. from 90/20.

For more information about the launch, click the button.

Launch to space Tsiklon-2 | I2P 4
Tsiklon-2 | I2P 4

Agency: N/A

Status: Launch Successful

Launch date: Oct. 23, 1970, 4:42 a.m. UTC

Rocket: Tsiklon-2

Launch pad: 90/20

Location: Baikonur Cosmodrome, Republic of Kazakhstan

...

Latest news about this satellite

There are no fresh news available about this satellite. Check back as we update our databases every day.


Newsletter sign-up

Weekly statistics, charts and insights to help you stay on top of the space industry.